Regional Weather Roundup
Issued by NWS

Home | Current Version | Previous Version | Graphics & Text | Print | Product List | Glossary On
Versions: 1 2 3 4 5 6 7 8 9 10 11 12 13 14 15 16 17 18 19 20 21 22 23 24 25 26 27 28 29 30 31 32 33 34 35 36 37 38 39 40 41 42 43 44 45 46 47 48 49 50
199
ASUS45 KBOU 201207
RWRCO

WEATHER ROUNDUP FOR COLORADO
NATIONAL WEATHER SERVICE DENVER/BOULDER CO
600 AM MDT SUN AUG 20 2017

NOTE: "FAIR" INDICATES FEW OR NO CLOUDS BELOW 12000 FEET WITH NO
SIGNIFICANT WEATHER AND/OR OBSTRUCTIONS TO VISIBILITY.

COZ001>005-013-030-031-201300-
...NORTHWEST COLORADO...

CITY           SKY/WX    TMP DP  RH WIND       PRES   REMARKS
CRAIG          FAIR      45  35  68 CALM      30.19S
HAYDEN         FAIR      53  35  50 E9        30.23R
MEEKER         FAIR      46  37  71 VRB3      30.21S
RABBIT EARS PA FAIR      52  32  46 W5        30.49R
STEAMBOAT SPGS FAIR      46  37  70 CALM      30.24S
WALDEN         FAIR      39  30  70 SE5       30.34R
$$

COZ006>008-011-201300-
...WEST CENTRAL VALLEYS...

CITY           SKY/WX    TMP DP  RH WIND       PRES   REMARKS
GRAND JUNCTION FAIR      65  39  38 SE14      30.07R
MONTROSE       FAIR      57  39  51 SE9       30.17R
EAGLE          FAIR      48  33  56 CALM      30.28R
RIFLE          FAIR      52  37  56 CALM      30.17R
DELTA          FAIR      60  36  40 NE8       30.13S
NUCLA          FAIR      57  34  41 E12       30.19S
$$

COZ017>023-064>068-201300-
...SOUTHWEST COLORADO...

CITY           SKY/WX    TMP DP  RH WIND       PRES   REMARKS
DURANGO        FAIR      55  38  52 CALM      30.22S
CORTEZ         FAIR      54  41  61 E5        30.14S
PAGOSA SPRINGS FAIR      49  37  63 CALM      30.31S
TELLURIDE      FAIR      52  32  46 SE5       30.40S
WOLF CREEK PAS FAIR      45  36  70 S7        30.65S
$$

COZ009-010-012-014-032>034-037-058>063-201300-
...CENTRAL COLORADO...

CITY           SKY/WX    TMP DP  RH WIND       PRES   REMARKS
ASPEN          FAIR      46  34  62 CALM      30.31R
BUENA VISTA    FAIR      49  33  54 W3        30.33S
COPPER MTN     FAIR      54  27  35 CALM      30.60S
BERTHOUD PASS  FAIR      43  37  81 NW14      30.63S
COTTONWOOD PAS FAIR      61  25  25 CALM      30.45R
GUNNISON       FAIR      40  34  79 NE3       30.35R
KREMMLING      FAIR      43  36  75 N3        30.33R
LEADVILLE      FAIR      33  29  85 NE5       30.44F WCI  29
MONARCH PASS   FAIR      50  23  34 SW3       30.70S
SALIDA         FAIR      55  34  44 NW7       30.37S
SUNLIGHT       FAIR      52  27  37 CALM      30.53S
WILKERSON PASS FAIR      52  27  37 W3        30.57S
$$

COZ069>075-201300-
...SAN LUIS VALLEY/SANGRE DE CRISTO MOUNTAINS...

CITY           SKY/WX    TMP DP  RH WIND       PRES   REMARKS
ALAMOSA        FAIR      49  43  80 CALM      30.29S
DEL NORTE      FAIR      50  34  54 CALM      30.33S
LA VETA PASS   NOT AVBL
SAGUACHE       FAIR      46  34  61 NW7       30.33S
$$

COZ035-036-038>040-201300-
...NORTHERN COLORADO FRONT RANGE...

CITY           SKY/WX    TMP DP  RH WIND       PRES   REMARKS
DENVER INTL AP MOCLDY    64  40  41 SW13      30.07R
DMNS CITY PARK   N/A     63  39  41 SE8       30.07S
AURORA         PTCLDY    61  41  46 S7        30.10R
FRONT RANGE AP FAIR      66  41  39 SW13G18   30.08S
ERIE MUNI ARPT FAIR      57  43  59 CALM      30.10S
BOULDER MUN AP FAIR      63  41  45 S3        30.06S
CENTENNIAL     FAIR      57  41  55 CALM      30.11S
BROOMFIELD     MOCLDY    66  36  32 W9        30.09
FORT COLLINS   FAIR      63  47  55 N3        30.05S
LONGMONT       FAIR      62  45  54 W5        30.06S
$$

COZ041-046-047-076>085-087-088-201300-
...PIKES PEAK/PALMER DIVIDE AND SOUTHERN FOOTHILLS...

CITY           SKY/WX    TMP DP  RH WIND       PRES   REMARKS
COLO. SPRINGS  FAIR      63  43  48 N5        30.13S
A. F. ACADEMY  FAIR      54  42  63 N5        30.16R
SCHRIEVER AFB  FAIR      65  39  39 NW9       30.13S
CHEYENNE MTN   FAIR      67  36  31 NW9       30.14S
ELLICOTT       NOT AVBL
FALCON         FAIR      60  37  43 NW10      30.20R
FORT CARSON    FAIR      62  42  47 N13       30.09S
LIMON          FAIR      50  48  93 N7        30.07S
MONUMENT HILL  FAIR      54  39  58 W10       30.22R
CANON CITY     CLEAR     70  41  35 W18       30.07S
WALSENBURG     FAIR      72  39  30 W14       30.12S
TRINIDAD       FAIR      61  46  57 W9        30.10S
$$

COZ042>045-048>051-090-091-201300-
...NORTHEAST COLORADO...

CITY           SKY/WX    TMP DP  RH WIND       PRES   REMARKS
GREELEY ARPT   FAIR      55  49  80 NW3       30.03S
AKRON          FAIR      63  43  48 W12       30.00R
BURLINGTON     FAIR      61  53  75 SW7       29.98S
WRAY           NOT AVBL
YUMA           FAIR      55  37  50 W5        29.96S
STERLING       FAIR      52  50  93 S5        29.96R
HOLYOKE        NOT AVBL
FORT MORGAN    FAIR      56  44  64 W9        30.00S
$$

COZ086-089-092>099-201300-
...SOUTHEAST COLORADO...

CITY           SKY/WX    TMP DP  RH WIND       PRES   REMARKS
PUEBLO         FAIR      56  47  71 CALM      30.02S
LA JUNTA       FAIR      59  51  75 W10       29.98F
LAMAR          FAIR      55  52  89 CALM      29.94S
SPRINGFIELD      N/A     63  54  72 SW10      30.00S
$$




USA.gov is the U.S. government's official web portal to all federal, state and local government web resources and services.